Weather History for Unalakleet, AK

Change the Weather History Date:

Thursday, January 10, 2013

  Actual Average Record
Temperature  
Mean Temperature 19 °F -  
Max Temperature 23 °F 9 °F 38 °F (1955)
Min Temperature 15 °F -2 °F -31 °F (1972)
Degree Days  
Heating Degree Days 46    
Moisture  
Dew Point 14 °F    
Average Humidity 80    
Maximum Humidity 93    
Minimum Humidity 74    
Precipitation  
Precipitation 0.00 in - - ()
Sea Level Pressure  
Sea Level Pressure 29.71 in    
Wind  
Wind Speed 23 mph (East)    
Max Wind Speed 34 mph    
Max Gust Speed 40 mph    
Visibility 7 miles    
Events      
Averages and records for this station are not official NWS values.
T = Trace of Precipitation, MM = Missing Value Source: NWS Daily Summary

Daily Weather History Graph

Daily Weather History Graph

Search for Another Location

Airport:

Trip Planner

Search our weather history database for the weather conditions in past years. The results will help you decide how hot, cold, wet, or windy it might be!

Date:

Astronomy

Jan. 10, 2013 Rise Set
Actual Time 11:16 AM AKST 4:25 PM AKST
Civil Twilight 10:07 AM AKST 5:34 PM AKST
Nautical Twilight 9:02 AM AKST 6:39 PM AKST
Astronomical Twilight 8:05 AM AKST 7:37 PM AKST
Moon 10:00 AM AKST (1/10) 3:56 PM AKST (1/10)
Length of Visible Light 7h 27m
Length of Day
5h 09m
Waning Crescent, 1% of the Moon is Illuminated
Jan 10
Waning Crescent
Jan 11
New
Jan 18
First Quarter
Jan 26
Full
Feb 3
Last Quarter

Hourly Weather History & Observations

Time (AKST) Temp. Windchill Dew Point Humidity Pressure Visibility Wind Dir Wind Speed Gust Speed Precip Events Conditions
12:16 AM 17.6 °F -1.6 °F 12.2 °F 79% 29.59 in 10.0 mi East 28.8 mph 34.5 mph N/A   Overcast
12:36 AM 17.6 °F -0.3 °F 12.2 °F 79% 29.59 in 10.0 mi East 24.2 mph 32.2 mph N/A   Overcast
12:56 AM 17.6 °F -1.6 °F 12.2 °F 79% 29.59 in 2.0 mi East 28.8 mph 33.4 mph N/A   Overcast
1:16 AM 17.6 °F -1.3 °F 12.2 °F 79% 29.59 in 1.2 mi East 27.6 mph 36.8 mph N/A   Overcast
1:36 AM 17.6 °F -1.3 °F 12.2 °F 79% 29.59 in 1.0 mi East 27.6 mph - N/A   Overcast
1:56 AM 17.6 °F -2.2 °F 12.2 °F 79% 29.58 in 1.0 mi East 31.1 mph - N/A   Overcast
2:16 AM 17.6 °F -2.2 °F 14.0 °F 86% 29.59 in 1.2 mi East 31.1 mph 35.7 mph N/A   Overcast
2:36 AM 17.6 °F -1.3 °F 12.2 °F 79% 29.60 in 0.8 mi East 27.6 mph 34.5 mph N/A   Overcast
2:56 AM 17.6 °F -1.3 °F 12.2 °F 79% 29.60 in 0.5 mi East 27.6 mph 34.5 mph N/A   Overcast
3:16 AM 15.8 °F -3.7 °F 12.2 °F 86% 29.60 in 1.5 mi East 27.6 mph - N/A   Overcast
3:36 AM 17.6 °F -1.0 °F 12.2 °F 79% 29.61 in 3.0 mi East 26.5 mph 31.1 mph N/A   Overcast
3:56 AM 17.6 °F -1.0 °F 12.2 °F 79% 29.62 in 3.0 mi East 26.5 mph - N/A   Overcast
4:16 AM 17.6 °F -1.3 °F 12.2 °F 79% 29.62 in 2.5 mi East 27.6 mph 33.4 mph N/A   Overcast
4:36 AM 17.6 °F -1.3 °F 12.2 °F 79% 29.63 in 2.5 mi East 27.6 mph 31.1 mph N/A   Overcast
4:56 AM 17.6 °F -0.6 °F 12.2 °F 79% 29.64 in 2.5 mi East 25.3 mph 29.9 mph N/A   Overcast
5:16 AM 17.6 °F -0.6 °F 12.2 °F 79% 29.65 in 3.0 mi East 25.3 mph 28.8 mph N/A   Overcast
5:36 AM 17.6 °F 0.5 °F 12.2 °F 79% 29.66 in 1.8 mi East 21.9 mph 27.6 mph N/A   Overcast
5:56 AM 17.6 °F 0.9 °F 14.0 °F 86% 29.67 in 2.0 mi East 20.7 mph - N/A   Overcast
6:16 AM 17.6 °F 0.9 °F 12.2 °F 79% 29.68 in 2.0 mi East 20.7 mph - N/A   Overcast
6:36 AM 17.6 °F 1.7 °F 14.0 °F 86% 29.69 in 2.5 mi East 18.4 mph - N/A   Overcast
6:56 AM 17.6 °F 1.3 °F 12.2 °F 79% 29.70 in 7.0 mi East 19.6 mph - N/A   Overcast
7:16 AM 17.6 °F 4.3 °F 12.2 °F 79% 29.72 in 10.0 mi East 12.7 mph 20.7 mph N/A   Overcast
7:36 AM 17.6 °F 3.7 °F 15.8 °F 93% 29.73 in 6.0 mi East 13.8 mph - N/A   Overcast
7:56 AM 19.4 °F 6.6 °F 15.8 °F 86% 29.74 in 10.0 mi East 12.7 mph - N/A   Overcast
8:16 AM 19.4 °F 7.9 °F 15.8 °F 86% 29.76 in 10.0 mi East 10.4 mph - N/A   Overcast
8:36 AM 19.4 °F 9.5 °F 15.8 °F 86% 29.76 in 10.0 mi East 8.1 mph - N/A   Overcast
8:56 AM 19.4 °F 10.4 °F 15.8 °F 86% 29.78 in 10.0 mi ESE 6.9 mph - N/A   Overcast
9:16 AM 19.4 °F 7.9 °F 15.8 °F 86% 29.79 in 10.0 mi East 10.4 mph - N/A   Overcast
9:36 AM 19.4 °F 7.2 °F 14.0 °F 80% 29.80 in 10.0 mi East 11.5 mph - N/A   Overcast
9:56 AM 19.4 °F 5.5 °F 14.0 °F 80% 29.80 in 10.0 mi East 15.0 mph - N/A   Mostly Cloudy
10:16 AM 19.4 °F 5.5 °F 12.2 °F 74% 29.81 in 10.0 mi East 15.0 mph - N/A   Mostly Cloudy
10:36 AM 17.6 °F 4.3 °F 12.2 °F 79% 29.81 in 10.0 mi East 12.7 mph - N/A   Mostly Cloudy
10:56 AM 19.4 °F 7.9 °F 12.2 °F 74% 29.82 in 10.0 mi East 10.4 mph - N/A   Overcast
11:16 AM 19.4 °F 7.2 °F 12.2 °F 74% 29.83 in 10.0 mi East 11.5 mph - N/A   Mostly Cloudy
11:36 AM 19.4 °F 5.5 °F 12.2 °F 74% 29.84 in 10.0 mi East 15.0 mph - N/A   Mostly Cloudy
11:56 AM 19.4 °F 5.5 °F 14.0 °F 80% 29.84 in 10.0 mi East 15.0 mph - N/A   Overcast
12:16 PM 19.4 °F 4.5 °F 12.2 °F 74% 29.85 in 10.0 mi East 17.3 mph - N/A   Overcast
12:36 PM 19.4 °F 5.0 °F 12.2 °F 74% 29.85 in 10.0 mi East 16.1 mph - N/A   Overcast
12:56 PM 19.4 °F 3.2 °F 12.2 °F 74% 29.84 in 10.0 mi East 20.7 mph - N/A   Mostly Cloudy
1:16 PM 17.6 °F 2.2 °F 12.2 °F 79% 29.84 in 10.0 mi East 17.3 mph - N/A   Partly Cloudy
1:36 PM 17.6 °F 2.2 °F 12.2 °F 79% 29.85 in 10.0 mi East 17.3 mph - N/A   Scattered Clouds
1:56 PM 17.6 °F 3.2 °F 12.2 °F 79% 29.84 in 10.0 mi East 15.0 mph - N/A   Mostly Cloudy
2:16 PM 17.6 °F 2.7 °F 12.2 °F 79% 29.84 in 10.0 mi East 16.1 mph - N/A   Mostly Cloudy
2:36 PM 17.6 °F 2.2 °F 12.2 °F 79% 29.83 in 10.0 mi East 17.3 mph - N/A   Scattered Clouds
2:56 PM 17.6 °F 0.9 °F 12.2 °F 79% 29.82 in 10.0 mi East 20.7 mph - N/A   Partly Cloudy
3:16 PM 17.6 °F 1.7 °F 12.2 °F 79% 29.82 in 10.0 mi East 18.4 mph - N/A   Clear
3:36 PM 17.6 °F 1.7 °F 12.2 °F 79% 29.81 in 10.0 mi East 18.4 mph - N/A   Clear
3:56 PM 17.6 °F 0.1 °F 12.2 °F 79% 29.81 in 10.0 mi East 23.0 mph - N/A   Clear
4:16 PM 19.4 °F 4.1 °F 12.2 °F 74% 29.80 in 10.0 mi East 18.4 mph 28.8 mph N/A   Clear
4:36 PM 17.6 °F 0.1 °F 12.2 °F 79% 29.79 in 10.0 mi East 23.0 mph - N/A   Clear
4:56 PM 19.4 °F 4.1 °F 12.2 °F 74% 29.79 in 10.0 mi East 18.4 mph - N/A   Partly Cloudy
5:16 PM 19.4 °F 3.6 °F 12.2 °F 74% 29.78 in 10.0 mi East 19.6 mph - N/A   Partly Cloudy
5:36 PM 19.4 °F 4.5 °F 12.2 °F 74% 29.77 in 10.0 mi East 17.3 mph - N/A   Clear
5:56 PM 19.4 °F 0.8 °F 14.0 °F 80% 29.74 in 9.0 mi East 28.8 mph 35.7 mph N/A   Clear
6:16 PM 19.4 °F 1.8 °F 15.8 °F 86% 29.73 in 9.0 mi East 25.3 mph 32.2 mph N/A   Scattered Clouds
6:36 PM 19.4 °F 0.5 °F 15.8 °F 86% 29.71 in 8.0 mi East 29.9 mph 35.7 mph N/A   Partly Cloudy
6:56 PM 19.4 °F 1.1 °F 15.8 °F 86% 29.70 in 10.0 mi East 27.6 mph 35.7 mph N/A   Clear
7:16 PM 19.4 °F 2.1 °F 15.8 °F 86% 29.70 in 10.0 mi East 24.2 mph - N/A   Clear
7:36 PM 19.4 °F 1.8 °F 15.8 °F 86% 29.69 in 10.0 mi East 25.3 mph 31.1 mph N/A   Scattered Clouds
8:16 PM 21.2 °F 4.5 °F 17.6 °F 86% 29.67 in 10.0 mi East 24.2 mph 31.1 mph N/A   Overcast
8:36 PM 21.2 °F 3.0 °F 17.6 °F 86% 29.64 in 3.0 mi East 29.9 mph 39.1 mph N/A   Mostly Cloudy
8:56 PM 21.2 °F 2.7 °F 17.6 °F 86% 29.64 in 4.0 mi East 31.1 mph 38.0 mph N/A   Overcast
9:16 PM 23.0 °F 4.4 °F 17.6 °F 80% 29.63 in 5.0 mi East 34.5 mph 39.1 mph N/A   Overcast
9:36 PM 23.0 °F 5.4 °F 17.6 °F 80% 29.63 in 5.0 mi East 29.9 mph 36.8 mph N/A   Overcast
9:56 PM 23.0 °F 5.1 °F 17.6 °F 80% 29.62 in 4.0 mi East 31.1 mph 38.0 mph N/A   Overcast
10:16 PM 23.0 °F 6.6 °F 17.6 °F 80% 29.63 in 7.0 mi East 25.3 mph - N/A   Overcast
10:36 PM 21.2 °F 2.7 °F 17.6 °F 86% 29.61 in 10.0 mi East 31.1 mph 36.8 mph N/A   Overcast
10:56 PM 23.0 °F 7.6 °F 17.6 °F 80% 29.61 in 10.0 mi East 21.9 mph 29.9 mph N/A   Mostly Cloudy
11:16 PM 21.2 °F 3.0 °F 17.6 °F 86% 29.60 in 10.0 mi East 29.9 mph 35.7 mph N/A   Mostly Cloudy
11:36 PM 23.0 °F 5.7 °F 17.6 °F 80% 29.60 in 10.0 mi East 28.8 mph 34.5 mph N/A   Partly Cloudy
11:56 PM 23.0 °F 4.4 °F 17.6 °F 80% 29.59 in 8.0 mi East 34.5 mph 40.3 mph N/A   Scattered Clouds